Weather History for 41194 - April, 2013

Change the Weather History Date:

Sunday, April 21, 2013

  Actual Average Record
Temperature  
Mean Temperature 92 °F -  
Max Temperature 100 °F 95 °F - ()
Min Temperature 84 °F 74 °F - ()
Cooling Degree Days 27    
Growing Degree Days 42 (Base 50)    
Moisture  
Dew Point 55 °F    
Average Humidity 29    
Maximum Humidity 45    
Minimum Humidity 9    
Precipitation  
Precipitation 0.02 in 0.00 in - ()
Sea Level Pressure  
Sea Level Pressure 29.61 in    
Wind  
Wind Speed 6 mph ()    
Max Wind Speed 14 mph    
Max Gust Speed -    
Visibility 5.7 miles    
Events Rain , Thunderstorm    
T = Trace of Precipitation, MM = Missing Value Source: Averaged Metar Reports

Daily Weather History Graph

Daily Weather History Graph

Search for Another Location

Airport or City:

Trip Planner

Search our weather history database for the weather conditions in past years. The results will help you decide how hot, cold, wet, or windy it might be!

Date:

Astronomy

Apr. 21, 2013 Rise Set
Actual Time 5:50 AM GST 6:44 PM GST
Civil Twilight 5:27 AM GST 7:07 PM GST
Nautical Twilight 4:59 AM GST 7:35 PM GST
Astronomical Twilight 4:30 AM GST 8:04 PM GST
Moon 2:31 PM GST (4/21) 2:30 AM GST (4/21)
Length of Visible Light 13h 40m
Length of Day
12h 53m
Waxing Gibbous, 77% of the Moon is Illuminated
Apr 21
Waxing Gibbous
Apr 25
Full
May 2
Last Quarter
May 10
New
May 18
First Quarter

Hourly Weather History & Observations

Time (GST) Temp. Heat Index Dew Point Humidity Pressure Visibility Wind Dir Wind Speed Gust Speed Precip Events Conditions
12:00 AM 89.6 °F 87.7 °F 55.4 °F 31% 29.62 in - SSE 4.6 mph - N/A   Clear
1:00 AM 88 °F - 55 °F 23% 29.63 in 6 mi WSW 4.6 mph - -   Partly Cloudy
1:00 AM 87.8 °F 86.1 °F 55.4 °F 33% 29.62 in - WSW 4.6 mph - N/A   Clear
2:00 AM 89.6 °F - 50.0 °F 26% 29.62 in - Variable 2.3 mph - N/A   Clear
3:00 AM 89.6 °F 87.3 °F 53.6 °F 29% 29.59 in - Variable 3.5 mph - N/A   Clear
4:00 AM 89 °F - 53 °F 19% 29.59 in 6 mi ESE 6.9 mph - -   Partly Cloudy
4:00 AM 87.8 °F 85.7 °F 53.6 °F 31% 29.56 in - ESE 6.9 mph - N/A   Clear
5:00 AM 87.8 °F 85.7 °F 53.6 °F 31% 29.59 in - SSE 6.9 mph - N/A   Clear
6:00 AM 86.0 °F 86.6 °F 62.6 °F 45% 29.59 in 6.2 mi South 4.6 mph - N/A Thunderstorm Thunderstorm
6:11 AM 86.0 °F 85.4 °F 59.0 °F 40% 29.65 in 5.0 mi WSW 11.5 mph - N/A Rain , Thunderstorm Light Thunderstorms and Rain
6:22 AM 86.0 °F 86.1 °F 60.8 °F 43% 29.62 in 5.0 mi South 5.8 mph - N/A Rain , Thunderstorm Light Thunderstorms and Rain
7:00 AM 86 °F - 58 °F 29% 29.62 in 6 mi SSE 6.9 mph - - Thunderstorm Light Thunderstorm
7:00 AM 86.0 °F 85.4 °F 59.0 °F 40% 29.59 in - SSE 6.9 mph - N/A   Clear
8:00 AM 86.0 °F 84.5 °F 55.4 °F 35% 29.62 in 5.0 mi SSE 8.1 mph - N/A   Unknown
9:00 AM 87.8 °F 86.5 °F 57.2 °F 35% 29.62 in 5.0 mi SSE 8.1 mph - N/A   Unknown
10:00 AM 91 °F - 56 °F 21% 29.68 in 6 mi South 5.8 mph - -   Partly Cloudy
10:00 AM 91.4 °F 89.4 °F 55.4 °F 29% 29.68 in - South 5.8 mph - N/A   Clear
11:00 AM 95.0 °F - 51.8 °F 23% 29.65 in - Variable 4.6 mph - N/A   Clear
12:00 PM 98.6 °F - 46.4 °F 17% 29.65 in - Variable 9.2 mph - N/A   Clear
1:00 PM 98 °F - 45 °F 9% 29.63 in 6 mi West 8.1 mph - -   Clear
1:00 PM 98.6 °F - 44.6 °F 16% 29.62 in - West 8.1 mph - N/A   Clear
2:00 PM 98.6 °F - 44.6 °F 16% 29.59 in - WNW 8.1 mph - N/A   Clear
3:00 PM 96.8 °F - 46.4 °F 18% 29.59 in - WNW 12.7 mph - N/A   Clear
4:00 PM 92 °F - 57 °F 22% 29.58 in 6 mi NW 13.8 mph - -   Mostly Cloudy
4:00 PM 91.4 °F 89.9 °F 57.2 °F 31% 29.56 in - NW 13.8 mph - N/A   Clear
5:00 PM 93.2 °F 90.8 °F 53.6 °F 26% 29.56 in - NNW 10.4 mph - N/A   Clear
6:00 PM 89.6 °F 88.1 °F 57.2 °F 33% 29.56 in - NW 8.1 mph - N/A   Clear
7:00 PM 88 °F - 59 °F 27% 29.59 in 6 mi NNW 5.8 mph - -   Mostly Cloudy
7:00 PM 87.8 °F 87.1 °F 59.0 °F 38% 29.56 in - NNW 5.8 mph - N/A   Clear
8:00 PM 87.8 °F 86.5 °F 57.2 °F 35% 29.59 in - NW 4.6 mph - N/A   Clear
8:01 PM 87.8 °F 86.1 °F 55.4 °F 33% 29.65 in - WSW 11.5 mph - N/A   Clear
9:00 PM 87.8 °F 87.1 °F 59.0 °F 38% 29.62 in - NNE 4.6 mph - N/A   Clear
10:00 PM 88 °F - 58 °F 26% 29.66 in 6 mi West 6.9 mph - - Rain Light Rain
10:00 PM 87.8 °F 86.5 °F 57.2 °F 35% 29.65 in - West 6.9 mph - N/A   Clear
11:00 PM 86.0 °F 86.6 °F 62.6 °F 45% 29.68 in - SW 8.1 mph - N/A   Clear